Tracking 31030 objects as of 16-Jul-2025
HD Live streaming from Space Station
objects crossing your sky now

DELTA 1 DEB

Track DELTA 1 DEB now!
10-day predictions


NORAD ID: 21317
Int'l Code: 1975-052AK
Perigee: 962.1 km
Apogee: 1,292.2 km
Inclination: 100.1 °
Period: 107.7 minutes
Semi major axis: 7498 km
RCS: 0.0147 m2 (small)
Launch date: June 12, 1975
Source: United States (US)
Launch site: AIR FORCE WESTERN TEST RANGE (AFWTR)

Note: This is SATELLITE DEBRIS
Your satellite tracking list
Your tracking list is empty




NASA's NSSDC Master Catalog

Two Line Element Set (TLE):
1 21317U 75052AK  25194.48362127  .00001124  00000-0  19506-2 0  9998
2 21317 100.0963 129.8833 0220137  55.8017  11.3180 13.37129350635170
Source of the keplerian elements: AFSPC